{"data":{"norad_id":53840,"intl_designator":"2022-114Y","name":"STARLINK-4766","alt_names":[],"object_type":"PAYLOAD","status":"ACTIVE","operator":null,"country":"US","launch_date":"2022-09-19","launch_site_code":"AFETR","launch_vehicle":null,"mission":null,"orbit_class":"UNKNOWN","rcs_meters":null,"size_class":null,"mass_kg":null,"dimensions":null,"purposes":["comms"],"wikipedia_slug":null,"has_3d_model":false,"image_url":null,"decayed_at":null,"tle_current":{"epoch":"2026-09-20T05:31:47.775648Z","epoch_age_seconds":107361,"freshness":"FRESH","line1":"1 53840U 22114Y   26263.23041407  .00000685  00000+0  33829-4 0  9997","line2":"2 53840  53.1594 125.2073 0001344  73.1529 286.9620 15.31716286222557","mean_motion":15.31716286,"eccentricity":0.0001344,"inclination_deg":53.1594,"raan_deg":125.2073,"arg_perigee_deg":73.1529,"mean_anomaly_deg":286.962,"bstar":3.3829e-5,"rev_number":22255,"period_min":94.012188364236,"perigee_km":469.77096539385,"apogee_km":471.61193048066,"semimajor_km":6848.8284479373,"source":"CELESTRAK","updated_at":"2026-09-21T09:00:33.020765Z"}}}